Powrót do katalogu

STARLINK-36367

AktywnyŁącznośćVLEO
NORAD 67629·PAYLOAD·🇺🇸 United States

Wystrzelony Jan 30, 2026 z Cape Canaveral Space Force Station

Loading…

Następne Przeloty (najbliższe 24 godziny)

TLE

ŚwieżeSource: CelesTrak SupGP

Epoka: Sep 15, 2026, 04:14 UTC

1 67629C 26020N   26258.17687500  .00067804  00000+0  24563-2 0  2581
2 67629  43.0027 149.3998 0001489 280.3822 171.3437 15.27539031    11

Śledź STARLINK-36367 w czasie rzeczywistym z AllMySat

Download on the App Store